| time (UTC) | temp F | wind direction | speed knots | gust knots | rain 1hr in | rain 24hr in | rain mn in | humidity % | barometer mb |
| 20260508031903 | 47 | 214 | 0.0 | 2.6 | 0.00 | 0.06 | 0.00 | 92 | 1010.7 |
| 20260508031403 | 47 | 214 | 0.9 | 4.3 | 0.00 | 0.06 | 0.00 | 91 | 1010.8 |
| 20260508030903 | 46 | 214 | 0.0 | 6.1 | 0.00 | 0.06 | 0.00 | 91 | 1010.8 |
| 20260508030403 | 46 | 214 | 0.9 | 5.2 | 0.00 | 0.06 | 0.00 | 91 | 1010.8 |
| 20260508025903 | 46 | 214 | 0.9 | 2.6 | 0.00 | 0.06 | 0.00 | 91 | 1010.8 |
| 20260508025405 | 47 | 214 | 0.0 | 2.6 | 0.00 | 0.06 | 0.00 | 91 | 1010.8 |
| 20260508024903 | 47 | 214 | 0.0 | 2.6 | 0.00 | 0.06 | 0.00 | 91 | 1010.8 |
| 20260508024403 | 47 | 214 | 0.9 | 2.6 | 0.00 | 0.06 | 0.00 | 90 | 1010.7 |
| 20260508023903 | 47 | 214 | 0.0 | 1.7 | 0.00 | 0.06 | 0.00 | 91 | 1010.7 |
| 20260508023403 | 47 | 214 | 0.0 | 0.0 | 0.00 | 0.06 | 0.00 | 90 | 1010.6 |
| 20260508022903 | 47 | 214 | 0.0 | 1.7 | 0.00 | 0.06 | 0.00 | 90 | 1010.5 |
| 20260508021905 | 47 | 214 | 0.0 | 2.6 | 0.00 | 0.06 | 0.00 | 90 | 1010.5 |
| 20260508021404 | 47 | 214 | 0.9 | 7.0 | 0.00 | 0.06 | 0.00 | 90 | 1010.6 |
| 20260508020904 | 48 | 215 | 0.9 | 2.6 | 0.00 | 0.06 | 0.00 | 90 | 1010.6 |
| 20260508020403 | 48 | 215 | 0.9 | 7.8 | 0.00 | 0.06 | 0.00 | 90 | 1010.5 |
| 20260508015904 | 48 | 215 | 4.3 | 10.4 | 0.00 | 0.06 | 0.00 | 90 | 1010.5 |
| 20260508015403 | 47 | 215 | 3.5 | 7.0 | 0.00 | 0.06 | 0.00 | 90 | 1010.4 |
| 20260508014903 | 47 | 226 | 3.5 | 10.4 | 0.00 | 0.06 | 0.00 | 90 | 1010.4 |
| 20260508014404 | 47 | 219 | 2.6 | 7.0 | 0.00 | 0.06 | 0.00 | 90 | 1010.5 |
| 20260508013903 | 47 | 219 | 4.3 | 11.3 | 0.00 | 0.06 | 0.00 | 91 | 1010.4 |
| 20260508013403 | 47 | 220 | 2.6 | 8.7 | 0.00 | 0.06 | 0.00 | 91 | 1010.3 |
| 20260508012903 | 47 | 213 | 2.6 | 5.2 | 0.00 | 0.06 | 0.00 | 91 | 1010.3 |
| 20260508012403 | 48 | 213 | 0.9 | 6.1 | 0.00 | 0.06 | 0.00 | 91 | 1010.4 |
| 20260508010904 | 48 | 217 | 5.2 | 10.4 | 0.00 | 0.06 | 0.00 | 91 | 1010.2 |
| 20260508010404 | 47 | 211 | 4.3 | 7.0 | 0.00 | 0.06 | 0.00 | 92 | 1010.2 |
| 20260508005403 | 47 | 211 | 5.2 | 10.4 | 0.00 | 0.06 | 0.00 | 92 | 1010.3 |
| 20260508004903 | 47 | 209 | 4.3 | 10.4 | 0.00 | 0.06 | 0.00 | 92 | 1010.3 |
| 20260508004403 | 47 | 211 | 4.3 | 6.1 | 0.00 | 0.06 | 0.00 | 92 | 1010.3 |
| 20260508003905 | 47 | 211 | 2.6 | 7.0 | 0.00 | 0.06 | 0.00 | 93 | 1010.3 |
| 20260508002903 | 47 | 210 | 1.7 | 6.1 | 0.00 | 0.06 | 0.00 | 93 | 1010.3 |
| 20260508002404 | 47 | 210 | 2.6 | 6.1 | 0.00 | 0.06 | 0.00 | 93 | 1010.2 |
| 20260508001903 | 47 | 210 | 0.9 | 7.0 | 0.00 | 0.06 | 0.00 | 93 | 1010.3 |
| 20260508001403 | 47 | 209 | 3.5 | 8.7 | 0.00 | 0.06 | 0.00 | 93 | 1010.3 |
| 20260508000903 | 47 | 213 | 2.6 | 6.1 | 0.00 | 0.06 | 0.00 | 93 | 1010.2 |
| 20260508000405 | 47 | 213 | 5.2 | 10.4 | 0.00 | 0.06 | 0.00 | 93 | 1010.2 |
| 20260507235903 | 47 | 212 | 1.7 | 6.1 | 0.00 | 0.06 | 0.00 | 93 | 1010.1 |
| 20260507235404 | 47 | 212 | 0.9 | 4.3 | 0.01 | 0.06 | 0.00 | 93 | 1010.1 |
| 20260507234903 | 47 | 212 | 0.9 | 6.1 | 0.01 | 0.06 | 0.00 | 93 | 1010.1 |
| 20260507234404 | 47 | 212 | 0.9 | 7.0 | 0.01 | 0.06 | 0.00 | 93 | 1010.1 |
| 20260507232904 | 47 | 209 | 0.9 | 5.2 | 0.01 | 0.06 | 0.00 | 93 | 1010.0 |
| 20260507231404 | 47 | 209 | 1.7 | 6.1 | 0.01 | 0.06 | 0.00 | 93 | 1010.0 |
| 20260507230905 | 47 | 209 | 0.9 | 2.6 | 0.01 | 0.06 | 0.00 | 93 | 1010.0 |
| 20260507230404 | 47 | 209 | 0.0 | 1.7 | 0.02 | 0.06 | 0.00 | 93 | 1010.0 |
| 20260507225904 | 47 | 209 | 0.0 | 1.7 | 0.02 | 0.06 | 0.06 | 93 | 1010.0 |
| 20260507225405 | 47 | 209 | 0.0 | 0.9 | 0.03 | 0.06 | 0.06 | 93 | 1010.0 |
| 20260507224904 | 47 | 209 | 0.0 | 1.7 | 0.03 | 0.06 | 0.06 | 93 | 1009.9 |
| 20260507224404 | 47 | 209 | 0.0 | 2.6 | 0.03 | 0.06 | 0.06 | 93 | 1009.9 |
| 20260507223903 | 47 | 209 | 0.0 | 2.6 | 0.03 | 0.06 | 0.06 | 93 | 1010.0 |
| 20260507222903 | 47 | 209 | 0.0 | 2.6 | 0.04 | 0.06 | 0.06 | 92 | 1009.9 |
| 20260507222403 | 47 | 209 | 0.0 | 1.7 | 0.04 | 0.06 | 0.06 | 92 | 1009.9 |
| 20260507221904 | 48 | 209 | 0.9 | 2.6 | 0.04 | 0.06 | 0.06 | 92 | 1009.9 |
| 20260507221406 | 48 | 209 | 0.0 | 5.2 | 0.04 | 0.06 | 0.06 | 92 | 1009.9 |
| 20260507220904 | 48 | 209 | 3.5 | 6.1 | 0.04 | 0.06 | 0.06 | 92 | 1010.1 |
| 20260507215904 | 48 | 209 | 0.0 | 6.1 | 0.02 | 0.04 | 0.04 | 92 | 1009.9 |
| 20260507215404 | 48 | 209 | 1.7 | 4.3 | 0.02 | 0.03 | 0.03 | 92 | 1009.9 |
| 20260507214904 | 48 | 209 | 0.0 | 5.2 | 0.02 | 0.02 | 0.02 | 91 | 1009.8 |
| 20260507214404 | 48 | 209 | 0.9 | 5.2 | 0.02 | 0.02 | 0.02 | 91 | 1009.7 |
| 20260507213905 | 48 | 209 | 0.9 | 7.0 | 0.02 | 0.02 | 0.02 | 91 | 1009.8 |
| 20260507212905 | 48 | 209 | 0.0 | 2.6 | 0.01 | 0.02 | 0.02 | 91 | 1009.8 |
| 20260507212404 | 48 | 209 | 1.7 | 6.1 | 0.01 | 0.02 | 0.02 | 90 | 1009.8 |
| 20260507211904 | 48 | 209 | 0.9 | 4.3 | 0.01 | 0.02 | 0.02 | 90 | 1009.7 |
| 20260507211404 | 49 | 209 | 0.0 | 2.6 | 0.01 | 0.02 | 0.02 | 90 | 1009.7 |
| 20260507210904 | 49 | 209 | 0.0 | 1.7 | 0.01 | 0.02 | 0.02 | 90 | 1009.7 |
| 20260507210405 | 49 | 209 | 0.0 | 0.9 | 0.01 | 0.02 | 0.02 | 89 | 1009.7 |
| 20260507205905 | 49 | 209 | 0.9 | 5.2 | 0.01 | 0.02 | 0.02 | 89 | 1009.7 |
| 20260507205403 | 49 | 210 | 0.9 | 5.2 | 0.00 | 0.01 | 0.01 | 88 | 1009.7 |
| 20260507204905 | 49 | 210 | 3.5 | 6.1 | 0.00 | 0.01 | 0.01 | 87 | 1009.6 |
| 20260507203905 | 49 | 209 | 2.6 | 7.8 | 0.00 | 0.01 | 0.01 | 87 | 1009.4 |
| 20260507203404 | 49 | 214 | 4.3 | 10.4 | 0.00 | 0.01 | 0.01 | 87 | 1009.4 |
| 20260507202905 | 49 | 215 | 2.6 | 7.0 | 0.00 | 0.01 | 0.01 | 88 | 1009.4 |
| 20260507202404 | 49 | 217 | 3.5 | 7.0 | 0.00 | 0.01 | 0.01 | 88 | 1009.3 |
| 20260507201903 | 49 | 217 | 0.9 | 5.2 | 0.00 | 0.01 | 0.01 | 88 | 1009.3 |
| 20260507201404 | 49 | 217 | 1.7 | 5.2 | 0.00 | 0.01 | 0.01 | 88 | 1009.2 |
| 20260507200905 | 49 | 217 | 2.6 | 7.0 | 0.00 | 0.01 | 0.01 | 88 | 1009.3 |
| 20260507200405 | 49 | 218 | 2.6 | 10.4 | 0.00 | 0.01 | 0.01 | 88 | 1009.2 |
| 20260507195903 | 49 | 216 | 4.3 | 7.8 | 0.00 | 0.01 | 0.01 | 88 | 1009.2 |
| 20260507195403 | 49 | 214 | 4.3 | 10.4 | 0.00 | 0.01 | 0.01 | 87 | 1009.3 |
| 20260507194904 | 49 | 215 | 2.6 | 7.8 | 0.00 | 0.01 | 0.01 | 87 | 1009.3 |
| 20260507194405 | 49 | 207 | 2.6 | 12.2 | 0.00 | 0.01 | 0.01 | 87 | 1009.4 |
| 20260507192904 | 50 | 211 | 0.0 | 0.0 | 0.00 | 0.01 | 0.01 | 87 | 1009.1 |
| 20260507191904 | 50 | 211 | 0.0 | 4.3 | 0.00 | 0.01 | 0.01 | 86 | 1009.0 |
| 20260507191405 | 50 | 211 | 0.9 | 5.2 | 0.00 | 0.01 | 0.01 | 86 | 1009.1 |
| 20260507190403 | 50 | 211 | 1.7 | 4.3 | 0.01 | 0.01 | 0.01 | 86 | 1009.2 |
| 20260507185904 | 50 | 211 | 1.7 | 5.2 | 0.01 | 0.01 | 0.01 | 86 | 1009.1 |
| 20260507184405 | 50 | 215 | 2.6 | 8.7 | 0.01 | 0.01 | 0.01 | 86 | 1009.0 |
| 20260507183903 | 50 | 213 | 4.3 | 7.8 | 0.01 | 0.01 | 0.01 | 86 | 1009.0 |
| 20260507182903 | 50 | 213 | 4.3 | 7.8 | 0.01 | 0.01 | 0.01 | 86 | 1009.1 |
| 20260507182404 | 50 | 212 | 2.6 | 10.4 | 0.01 | 0.01 | 0.01 | 86 | 1009.1 |
| 20260507181903 | 50 | 208 | 5.2 | 8.7 | 0.01 | 0.01 | 0.01 | 86 | 1009.1 |
| 20260507181404 | 50 | 217 | 4.3 | 8.7 | 0.01 | 0.01 | 0.01 | 85 | 1009.1 |
| 20260507180903 | 51 | 211 | 0.9 | 8.7 | 0.00 | 0.00 | 0.00 | 84 | 1009.0 |
| 20260507175403 | 52 | 209 | 0.9 | 5.2 | 0.00 | 0.00 | 0.00 | 81 | 1008.8 |
| 20260507174904 | 53 | 209 | 0.0 | 2.6 | 0.00 | 0.00 | 0.00 | 78 | 1008.8 |
| 20260507174405 | 53 | 209 | 1.7 | 6.1 | 0.00 | 0.00 | 0.00 | 76 | 1008.8 |
| 20260507173904 | 53 | 209 | 4.3 | 6.1 | 0.00 | 0.00 | 0.00 | 75 | 1008.6 |
| 20260507173403 | 53 | 208 | 3.5 | 6.1 | 0.00 | 0.00 | 0.00 | 75 | 1008.7 |
| 20260507172903 | 53 | 208 | 4.3 | 6.1 | 0.00 | 0.00 | 0.00 | 74 | 1008.7 |
| 20260507172404 | 54 | 208 | 2.6 | 6.1 | 0.00 | 0.00 | 0.00 | 73 | 1008.7 |
| 20260507171904 | 54 | 208 | 3.5 | 6.1 | 0.00 | 0.00 | 0.00 | 72 | 1008.8 |
| 20260507171403 | 54 | 209 | 1.7 | 6.1 | 0.00 | 0.00 | 0.00 | 72 | 1008.7 |
| 20260507170904 | 54 | 209 | 1.7 | 6.1 | 0.00 | 0.00 | 0.00 | 71 | 1008.8 |
| 20260507170403 | 54 | 208 | 4.3 | 10.4 | 0.00 | 0.00 | 0.00 | 71 | 1008.7 |
| 20260507165903 | 54 | 211 | 4.3 | 10.4 | 0.00 | 0.00 | 0.00 | 74 | 1008.8 |
| 20260507165403 | 54 | 208 | 2.6 | 7.8 | 0.00 | 0.00 | 0.00 | 71 | 1008.8 |
| 20260507164903 | 55 | 221 | 3.5 | 8.7 | 0.00 | 0.00 | 0.00 | 71 | 1008.7 |
| 20260507164403 | 55 | 215 | 3.5 | 8.7 | 0.00 | 0.00 | 0.00 | 71 | 1008.7 |
| 20260507163905 | 55 | 245 | 3.5 | 8.7 | 0.00 | 0.00 | 0.00 | 71 | 1008.7 |
| 20260507163404 | 55 | 211 | 3.5 | 6.1 | 0.00 | 0.00 | 0.00 | 70 | 1008.7 |
| 20260507162904 | 55 | 213 | 3.5 | 10.4 | 0.00 | 0.00 | 0.00 | 69 | 1008.7 |
| 20260507161404 | 56 | 201 | 3.5 | 6.1 | 0.00 | 0.00 | 0.00 | 68 | 1008.7 |
| 20260507160904 | 56 | 207 | 2.6 | 7.0 | 0.00 | 0.00 | 0.00 | 67 | 1008.7 |
| 20260507160404 | 56 | 208 | 1.7 | 6.1 | 0.00 | 0.00 | 0.00 | 68 | 1008.6 |
| 20260507155904 | 56 | 207 | 4.3 | 6.1 | 0.00 | 0.00 | 0.00 | 68 | 1008.6 |
| 20260507155405 | 55 | 208 | 3.5 | 7.0 | 0.00 | 0.00 | 0.00 | 70 | 1008.6 |
| 20260507154903 | 55 | 207 | 3.5 | 7.0 | 0.00 | 0.00 | 0.00 | 69 | 1008.7 |
| 20260507154404 | 55 | 206 | 3.5 | 10.4 | 0.00 | 0.00 | 0.00 | 69 | 1008.6 |
| 20260507153904 | 55 | 210 | 2.6 | 7.0 | 0.00 | 0.00 | 0.00 | 70 | 1008.7 |
| 20260507153404 | 55 | 211 | 1.7 | 6.1 | 0.00 | 0.00 | 0.00 | 71 | 1008.7 |
| 20260507152904 | 55 | 211 | 3.5 | 7.0 | 0.00 | 0.00 | 0.00 | 69 | 1008.8 |
| 20260507152406 | 55 | 211 | 2.6 | 6.1 | 0.00 | 0.00 | 0.00 | 69 | 1008.8 |
| 20260507151904 | 54 | 211 | 1.7 | 6.1 | 0.00 | 0.00 | 0.00 | 71 | 1008.8 |
| 20260507150905 | 54 | 211 | 3.5 | 6.1 | 0.00 | 0.00 | 0.00 | 72 | 1009.0 |
| 20260507150404 | 54 | 210 | 3.5 | 6.1 | 0.00 | 0.00 | 0.00 | 72 | 1008.9 |
| 20260507145904 | 54 | 211 | 2.6 | 7.0 | 0.00 | 0.00 | 0.00 | 70 | 1008.9 |
| 20260507145404 | 54 | 211 | 4.3 | 7.0 | 0.00 | 0.00 | 0.00 | 70 | 1009.0 |
| 20260507144905 | 54 | 205 | 4.3 | 7.0 | 0.00 | 0.00 | 0.00 | 70 | 1009.0 |
| 20260507144405 | 54 | 205 | 3.5 | 7.0 | 0.00 | 0.00 | 0.00 | 69 | 1009.1 |
| 20260507143404 | 54 | 198 | 3.5 | 6.1 | 0.00 | 0.00 | 0.00 | 69 | 1009.1 |
| 20260507142904 | 55 | 198 | 3.5 | 7.8 | 0.00 | 0.00 | 0.00 | 69 | 1009.2 |
| 20260507141904 | 55 | 202 | 5.2 | 7.0 | 0.00 | 0.00 | 0.00 | 69 | 1009.3 |
| 20260507141404 | 55 | 202 | 3.5 | 7.0 | 0.00 | 0.00 | 0.00 | 70 | 1009.2 |
| 20260507140904 | 55 | 205 | 4.3 | 7.0 | 0.00 | 0.00 | 0.00 | 69 | 1009.4 |
| 20260507135904 | 55 | 209 | 4.3 | 7.0 | 0.00 | 0.00 | 0.00 | 67 | 1009.4 |
| 20260507135404 | 55 | 205 | 5.2 | 7.8 | 0.00 | 0.00 | 0.00 | 67 | 1009.4 |
| 20260507134905 | 55 | 209 | 4.3 | 6.1 | 0.00 | 0.00 | 0.00 | 68 | 1009.4 |
| 20260507134404 | 55 | 210 | 4.3 | 8.7 | 0.00 | 0.00 | 0.00 | 67 | 1009.4 |
| 20260507133905 | 55 | 204 | 4.3 | 7.0 | 0.00 | 0.00 | 0.00 | 67 | 1009.4 |
| 20260507133404 | 55 | 211 | 4.3 | 10.4 | 0.00 | 0.00 | 0.00 | 66 | 1009.4 |
| 20260507132906 | 55 | 208 | 4.3 | 7.0 | 0.00 | 0.00 | 0.00 | 67 | 1009.5 |
| 20260507132404 | 55 | 205 | 4.3 | 8.7 | 0.00 | 0.00 | 0.00 | 66 | 1009.5 |
| 20260507131906 | 55 | 208 | 4.3 | 7.8 | 0.00 | 0.00 | 0.00 | 65 | 1009.6 |
| 20260507131405 | 55 | 205 | 5.2 | 10.4 | 0.00 | 0.00 | 0.00 | 64 | 1009.5 |
| 20260507130904 | 55 | 213 | 5.2 | 10.4 | 0.00 | 0.00 | 0.00 | 63 | 1009.4 |
| 20260507130405 | 56 | 207 | 4.3 | 8.7 | 0.00 | 0.00 | 0.00 | 63 | 1009.5 |
| 20260507125904 | 56 | 214 | 5.2 | 8.7 | 0.00 | 0.00 | 0.00 | 63 | 1009.5 |
| 20260507125404 | 57 | 206 | 5.2 | 8.7 | 0.00 | 0.00 | 0.00 | 63 | 1009.5 |
| 20260507124904 | 57 | 210 | 5.2 | 10.4 | 0.00 | 0.00 | 0.00 | 64 | 1009.5 |
| 20260507124405 | 57 | 215 | 7.0 | 13.0 | 0.00 | 0.00 | 0.00 | 63 | 1009.5 |
| 20260507123903 | 57 | 213 | 6.1 | 13.0 | 0.00 | 0.00 | 0.00 | 62 | 1009.5 |
| 20260507123404 | 57 | 212 | 6.1 | 10.4 | 0.00 | 0.00 | 0.00 | 64 | 1009.5 |
| 20260507122904 | 56 | 214 | 5.2 | 13.0 | 0.00 | 0.00 | 0.00 | 64 | 1009.5 |
| 20260507122405 | 56 | 214 | 5.2 | 13.0 | 0.00 | 0.00 | 0.00 | 64 | 1009.5 |
| 20260507121904 | 57 | 211 | 5.2 | 10.4 | 0.00 | 0.00 | 0.00 | 64 | 1009.6 |
| 20260507121403 | 57 | 208 | 6.1 | 12.2 | 0.00 | 0.00 | 0.00 | 64 | 1009.6 |
| 20260507120904 | 56 | 215 | 5.2 | 11.3 | 0.00 | 0.00 | 0.00 | 65 | 1009.6 |
| 20260507120403 | 56 | 210 | 4.3 | 8.7 | 0.00 | 0.00 | 0.00 | 66 | 1009.6 |
| 20260507115904 | 55 | 209 | 5.2 | 10.4 | 0.00 | 0.00 | 0.00 | 68 | 1009.6 |
| 20260507114904 | 53 | 214 | 4.3 | 8.7 | 0.00 | 0.00 | 0.00 | 72 | 1009.6 |
| 20260507114403 | 52 | 211 | 5.2 | 10.4 | 0.00 | 0.00 | 0.00 | 72 | 1009.6 |
| 20260507113905 | 52 | 214 | 5.2 | 8.7 | 0.00 | 0.00 | 0.00 | 73 | 1009.6 |
| 20260507113403 | 53 | 209 | 4.3 | 7.8 | 0.00 | 0.00 | 0.00 | 75 | 1009.6 |
| 20260507112905 | 53 | 208 | 4.3 | 7.0 | 0.00 | 0.00 | 0.00 | 76 | 1009.6 |
| 20260507112404 | 52 | 207 | 2.6 | 7.8 | 0.00 | 0.00 | 0.00 | 77 | 1009.5 |
| 20260507111905 | 53 | 211 | 2.6 | 6.1 | 0.00 | 0.00 | 0.00 | 80 | 1009.4 |
| 20260507111403 | 52 | 210 | 1.7 | 7.0 | 0.00 | 0.00 | 0.00 | 81 | 1009.5 |
| 20260507110903 | 52 | 211 | 3.5 | 6.1 | 0.00 | 0.00 | 0.00 | 79 | 1009.4 |
| 20260507105904 | 52 | 211 | 0.9 | 2.6 | 0.00 | 0.00 | 0.00 | 80 | 1009.3 |
| 20260507105404 | 52 | 211 | 0.9 | 2.6 | 0.00 | 0.00 | 0.00 | 79 | 1009.4 |
| 20260507104903 | 52 | 211 | 0.9 | 5.2 | 0.00 | 0.00 | 0.00 | 79 | 1009.5 |
| 20260507104403 | 52 | 211 | 2.6 | 4.3 | 0.00 | 0.00 | 0.00 | 77 | 1009.7 |
| 20260507103903 | 52 | 211 | 0.9 | 5.2 | 0.00 | 0.00 | 0.00 | 77 | 1009.4 |
| 20260507102904 | 52 | 207 | 1.7 | 5.2 | 0.00 | 0.00 | 0.00 | 77 | 1009.6 |
| 20260507102403 | 52 | 207 | 1.7 | 5.2 | 0.00 | 0.00 | 0.00 | 77 | 1009.7 |
| 20260507101403 | 52 | 209 | 2.6 | 10.4 | 0.00 | 0.00 | 0.00 | 75 | 1009.6 |
| 20260507100904 | 52 | 204 | 1.7 | 8.7 | 0.00 | 0.00 | 0.00 | 76 | 1009.5 |
| 20260507100404 | 53 | 206 | 1.7 | 6.1 | 0.00 | 0.00 | 0.00 | 76 | 1009.4 |
| 20260507095904 | 53 | 206 | 2.6 | 8.7 | 0.00 | 0.00 | 0.00 | 77 | 1009.4 |
| 20260507095404 | 52 | 198 | 1.7 | 7.0 | 0.00 | 0.00 | 0.00 | 77 | 1009.4 |
| 20260507094904 | 52 | 202 | 3.5 | 11.3 | 0.00 | 0.00 | 0.00 | 78 | 1009.5 |
| 20260507094404 | 51 | 211 | 0.9 | 8.7 | 0.00 | 0.00 | 0.00 | 78 | 1009.5 |
| 20260507093903 | 51 | 211 | 1.7 | 6.1 | 0.00 | 0.00 | 0.00 | 77 | 1009.5 |
| 20260507093404 | 51 | 210 | 4.3 | 10.4 | 0.00 | 0.00 | 0.00 | 76 | 1009.6 |
| 20260507092903 | 51 | 200 | 3.5 | 11.3 | 0.00 | 0.00 | 0.00 | 76 | 1009.6 |
| 20260507092405 | 51 | 207 | 3.5 | 10.4 | 0.00 | 0.00 | 0.00 | 77 | 1009.7 |
| 20260507091904 | 51 | 221 | 3.5 | 8.7 | 0.00 | 0.00 | 0.00 | 77 | 1009.6 |
| 20260507091403 | 51 | 211 | 0.9 | 6.1 | 0.00 | 0.00 | 0.00 | 77 | 1009.6 |
| 20260507085904 | 52 | 213 | 4.3 | 8.7 | 0.00 | 0.00 | 0.00 | 73 | 1009.6 |
| 20260507085403 | 52 | 213 | 7.0 | 13.0 | 0.00 | 0.00 | 0.00 | 72 | 1009.6 |
| 20260507084403 | 52 | 211 | 2.6 | 10.4 | 0.00 | 0.00 | 0.00 | 74 | 1009.8 |
| 20260507083904 | 52 | 211 | 2.6 | 7.0 | 0.00 | 0.00 | 0.00 | 75 | 1009.7 |
| 20260507083403 | 52 | 209 | 4.3 | 7.0 | 0.00 | 0.00 | 0.00 | 74 | 1009.7 |
| 20260507082903 | 51 | 206 | 2.6 | 7.0 | 0.00 | 0.00 | 0.00 | 74 | 1009.8 |
| 20260507082405 | 51 | 211 | 6.1 | 10.4 | 0.00 | 0.00 | 0.00 | 74 | 1009.9 |
| 20260507081905 | 51 | 205 | 1.7 | 10.4 | 0.00 | 0.00 | 0.00 | 74 | 1009.8 |
| 20260507081404 | 51 | 208 | 3.5 | 6.1 | 0.00 | 0.00 | 0.00 | 75 | 1009.8 |
| 20260507080904 | 51 | 208 | 4.3 | 7.8 | 0.00 | 0.00 | 0.00 | 74 | 1009.8 |
| 20260507080404 | 51 | 209 | 1.7 | 7.0 | 0.00 | 0.00 | 0.00 | 75 | 1009.8 |
| 20260507075403 | 51 | 207 | 2.6 | 10.4 | 0.00 | 0.00 | 0.00 | 75 | 1009.8 |
| 20260507074903 | 51 | 213 | 2.6 | 10.4 | 0.00 | 0.00 | 0.00 | 74 | 1009.9 |
| 20260507074405 | 51 | 215 | 1.7 | 6.1 | 0.00 | 0.00 | 0.00 | 75 | 1009.8 |
| 20260507073903 | 51 | 215 | 4.3 | 13.9 | 0.00 | 0.00 | 0.00 | 74 | 1009.8 |
| 20260507073405 | 51 | 212 | 4.3 | 10.4 | 0.00 | 0.00 | 0.00 | 75 | 1009.8 |
| 20260507072904 | 51 | 215 | 6.1 | 11.3 | 0.00 | 0.00 | 0.00 | 75 | 1009.8 |
| 20260507072403 | 51 | 204 | 5.2 | 10.4 | 0.00 | 0.00 | 0.00 | 75 | 1009.8 |
| 20260507071904 | 50 | 217 | 6.1 | 11.3 | 0.00 | 0.00 | 0.00 | 75 | 1009.8 |
| 20260507071405 | 50 | 210 | 4.3 | 13.9 | 0.00 | 0.00 | 0.00 | 75 | 1009.8 |
| 20260507070904 | 50 | 209 | 4.3 | 10.4 | 0.00 | 0.00 | 0.00 | 75 | 1009.8 |
| 20260507070405 | 50 | 215 | 0.9 | 10.4 | 0.00 | 0.00 | 0.00 | 74 | 1009.8 |
| 20260507065904 | 50 | 210 | 5.2 | 12.2 | 0.00 | 0.00 | 0.00 | 74 | 1009.8 |
| 20260507065404 | 50 | 210 | 5.2 | 11.3 | 0.00 | 0.00 | 0.00 | 74 | 1009.8 |
| 20260507064904 | 50 | 220 | 5.2 | 10.4 | 0.00 | 0.00 | 0.00 | 74 | 1009.8 |
| 20260507064404 | 50 | 213 | 5.2 | 8.7 | 0.00 | 0.00 | 0.00 | 74 | 1009.8 |
| 20260507063403 | 50 | 207 | 1.7 | 6.1 | 0.00 | 0.00 | 0.00 | 73 | 1009.8 |
| 20260507062403 | 50 | 213 | 1.7 | 13.9 | 0.00 | 0.00 | 0.00 | 72 | 1009.9 |
| 20260507061904 | 50 | 206 | 4.3 | 13.9 | 0.00 | 0.00 | 0.00 | 72 | 1009.8 |
| 20260507061404 | 50 | 207 | 2.6 | 11.3 | 0.00 | 0.00 | 0.00 | 72 | 1009.8 |
| 20260507060903 | 50 | 205 | 4.3 | 10.4 | 0.00 | 0.00 | 0.00 | 71 | 1009.9 |
| 20260507060404 | 50 | 214 | 5.2 | 10.4 | 0.00 | 0.00 | 0.00 | 71 | 1009.9 |
| 20260507055903 | 50 | 207 | 4.3 | 10.4 | 0.00 | 0.00 | 0.00 | 71 | 1009.9 |
| 20260507055404 | 50 | 214 | 6.1 | 11.3 | 0.00 | 0.00 | 0.00 | 70 | 1009.9 |
| 20260507054904 | 50 | 215 | 5.2 | 12.2 | 0.00 | 0.00 | 0.00 | 70 | 1009.9 |
| 20260507054403 | 50 | 206 | 2.6 | 8.7 | 0.00 | 0.00 | 0.00 | 70 | 1009.9 |
| 20260507053904 | 50 | 149 | 4.3 | 11.3 | 0.00 | 0.00 | 0.00 | 70 | 1009.9 |
| 20260507053404 | 50 | 205 | 1.7 | 7.0 | 0.00 | 0.00 | 0.00 | 70 | 1009.9 |
| 20260507052904 | 50 | 205 | 0.9 | 6.1 | 0.00 | 0.00 | 0.00 | 69 | 1009.8 |
| 20260507052404 | 50 | 205 | 1.7 | 8.7 | 0.00 | 0.00 | 0.00 | 69 | 1009.8 |
| 20260507051903 | 50 | 201 | 2.6 | 5.2 | 0.00 | 0.00 | 0.00 | 69 | 1009.8 |
| 20260507051404 | 50 | 201 | 3.5 | 7.0 | 0.00 | 0.00 | 0.00 | 69 | 1009.8 |
| 20260507050904 | 50 | 200 | 2.6 | 5.2 | 0.00 | 0.00 | 0.00 | 69 | 1009.9 |
| 20260507045904 | 50 | 200 | 1.7 | 6.1 | 0.00 | 0.00 | 0.00 | 69 | 1009.9 |
| 20260507045405 | 50 | 200 | 2.6 | 7.0 | 0.00 | 0.00 | 0.00 | 69 | 1009.9 |
| 20260507044904 | 50 | 188 | 2.6 | 6.1 | 0.00 | 0.00 | 0.00 | 69 | 1009.8 |
| 20260507043905 | 50 | 207 | 2.6 | 6.1 | 0.00 | 0.00 | 0.00 | 69 | 1009.9 |
| 20260507043404 | 50 | 207 | 4.3 | 8.7 | 0.00 | 0.00 | 0.00 | 69 | 1009.9 |
| 20260507042403 | 50 | 215 | 4.3 | 10.4 | 0.00 | 0.00 | 0.00 | 69 | 1009.9 |
| 20260507041405 | 50 | 222 | 4.3 | 7.8 | 0.00 | 0.00 | 0.00 | 69 | 1010.0 |
| 20260507040905 | 50 | 208 | 4.3 | 7.8 | 0.00 | 0.00 | 0.00 | 69 | 1010.0 |
| 20260507035903 | 50 | 218 | 2.6 | 7.0 | 0.00 | 0.00 | 0.00 | 68 | 1009.9 |
| 20260507035404 | 50 | 222 | 2.6 | 8.7 | 0.00 | 0.00 | 0.00 | 68 | 1010.0 |
| 20260507034904 | 50 | 198 | 1.7 | 5.2 | 0.00 | 0.00 | 0.00 | 68 | 1009.9 |
| 20260507034405 | 50 | 198 | 2.6 | 8.7 | 0.00 | 0.00 | 0.00 | 67 | 1010.0 |
| 20260507033904 | 49 | 200 | 2.6 | 8.7 | 0.00 | 0.00 | 0.00 | 69 | 1010.1 |
| 20260507033404 | 49 | 208 | 4.3 | 10.4 | 0.00 | 0.00 | 0.00 | 68 | 1010.1 |
| 20260507032905 | 49 | 217 | 4.3 | 7.8 | 0.00 | 0.00 | 0.00 | 69 | 1010.1 |
| 20260507032405 | 49 | 213 | 2.6 | 7.8 | 0.00 | 0.00 | 0.00 | 68 | 1010.2 |